Time,TemperatureF,DewpointF,PressureIn,WindDirection,WindDirectionDegrees,WindSpeedMPH,WindSpeedGustMPH,Humidity,HourlyPrecipIn,Conditions,Clouds,dailyrainin,SoftwareType,DateUTC
2013-05-15 00:02:00,74.0,44.0,-100.00,SW,215,7.0,12.0,33,0.00,,,-99.99,,2013-05-15 05:02:00,
2013-05-15 00:12:00,74.0,44.0,-100.00,SW,225,6.0,11.0,34,0.00,,,-99.99,,2013-05-15 05:12:00,
2013-05-15 00:22:00,73.0,43.0,-100.00,SSW,200,7.0,12.0,34,0.00,,,-99.99,,2013-05-15 05:22:00,
2013-05-15 00:32:00,73.0,44.0,-100.00,SSW,210,7.0,12.0,34,0.00,,,-99.99,,2013-05-15 05:32:00,
2013-05-15 00:42:00,73.0,44.0,-100.00,SSW,210,7.0,12.0,34,0.00,,,-99.99,,2013-05-15 05:42:00,
2013-05-15 00:52:00,72.0,43.0,-100.00,SSW,205,6.0,12.0,34,0.00,,,-99.99,,2013-05-15 05:52:00,
2013-05-15 01:02:00,72.0,43.0,-100.00,SSW,205,6.0,12.0,34,0.00,,,-99.99,,2013-05-15 06:02:00,
2013-05-15 01:11:00,72.0,43.0,-100.00,SW,235,6.0,11.0,35,0.00,,,-99.99,,2013-05-15 06:11:00,
2013-05-15 01:21:00,72.0,44.0,-100.00,SW,235,6.0,9.0,36,0.00,,,-99.99,,2013-05-15 06:21:00,
2013-05-15 01:32:00,71.0,44.0,-100.00,WSW,240,4.0,7.0,37,0.00,,,-99.99,,2013-05-15 06:32:00,
2013-05-15 01:41:00,71.0,44.0,-100.00,WSW,240,4.0,7.0,37,0.00,,,-99.99,,2013-05-15 06:41:00,
2013-05-15 01:51:00,70.0,44.0,-100.00,WSW,240,4.0,9.0,38,0.00,,,-99.99,,2013-05-15 06:51:00,
2013-05-15 02:01:00,70.0,44.0,-100.00,WSW,240,4.0,9.0,38,0.00,,,-99.99,,2013-05-15 07:01:00,
2013-05-15 02:11:00,69.0,44.0,-100.00,WSW,250,4.0,6.0,39,0.00,,,-99.99,,2013-05-15 07:11:00,
2013-05-15 02:21:00,69.0,44.0,-100.00,WSW,245,4.0,6.0,39,0.00,,,-99.99,,2013-05-15 07:21:00,
2013-05-15 02:32:00,69.0,45.0,-100.00,WSW,240,4.0,7.0,40,0.00,,,-99.99,,2013-05-15 07:32:00,
2013-05-15 02:41:00,69.0,45.0,-100.00,WSW,240,4.0,7.0,40,0.00,,,-99.99,,2013-05-15 07:41:00,
2013-05-15 02:52:00,69.0,45.0,-100.00,SW,220,6.0,8.0,41,0.00,,,-99.99,,2013-05-15 07:52:00,
2013-05-15 03:02:00,69.0,45.0,-100.00,SW,220,6.0,8.0,41,0.00,,,-99.99,,2013-05-15 08:02:00,
2013-05-15 03:12:00,70.0,46.0,-100.00,SW,220,5.0,10.0,41,0.00,,,-99.99,,2013-05-15 08:12:00,
2013-05-15 03:21:00,70.0,46.0,-100.00,SW,230,6.0,9.0,41,0.00,,,-99.99,,2013-05-15 08:21:00,
2013-05-15 03:32:00,70.0,47.0,-100.00,SW,215,7.0,14.0,42,0.00,,,-99.99,,2013-05-15 08:32:00,
2013-05-15 03:42:00,70.0,47.0,-100.00,SW,215,7.0,14.0,42,0.00,,,-99.99,,2013-05-15 08:42:00,
2013-05-15 03:52:00,70.0,47.0,-100.00,SW,225,6.0,12.0,43,0.00,,,-99.99,,2013-05-15 08:52:00,
2013-05-15 04:01:00,70.0,47.0,-100.00,SW,225,6.0,12.0,43,0.00,,,-99.99,,2013-05-15 09:01:00,
2013-05-15 04:11:00,70.0,47.0,-100.00,South,190,5.0,10.0,44,0.00,,,-99.99,,2013-05-15 09:11:00,
2013-05-15 04:21:00,69.0,47.0,-100.00,SSW,205,4.0,9.0,45,0.00,,,-99.99,,2013-05-15 09:21:00,
2013-05-15 04:33:00,67.0,47.0,-100.00,South,190,4.0,6.0,48,0.00,,,-99.99,,2013-05-15 09:33:00,
2013-05-15 04:42:00,67.0,47.0,-100.00,South,190,4.0,6.0,48,0.00,,,-99.99,,2013-05-15 09:42:00,
2013-05-15 04:53:00,67.0,48.0,-100.00,SSW,200,4.0,6.0,50,0.00,,,-99.99,,2013-05-15 09:53:00,
2013-05-15 05:02:00,67.0,48.0,-100.00,SSW,200,4.0,6.0,50,0.00,,,-99.99,,2013-05-15 10:02:00,
2013-05-15 05:12:00,67.0,49.0,-100.00,SSW,205,4.0,6.0,51,0.00,,,-99.99,,2013-05-15 10:12:00,
2013-05-15 05:22:00,67.0,49.0,-100.00,WNW,300,3.0,4.0,51,0.00,,,-99.99,,2013-05-15 10:22:00,
2013-05-15 05:32:00,68.0,49.0,-100.00,WSW,255,3.0,7.0,51,0.00,,,-99.99,,2013-05-15 10:32:00,
2013-05-15 05:42:00,68.0,49.0,-100.00,WSW,255,3.0,7.0,51,0.00,,,-99.99,,2013-05-15 10:42:00,
2013-05-15 05:52:00,68.0,50.0,-100.00,NW,310,3.0,4.0,51,0.00,,,-99.99,,2013-05-15 10:52:00,
2013-05-15 06:08:00,68.0,50.0,-100.00,NW,310,3.0,4.0,51,0.00,,,-99.99,,2013-05-15 11:08:00,
2013-05-15 06:17:00,68.0,49.0,-100.00,West,275,4.0,6.0,51,0.00,,,-99.99,,2013-05-15 11:17:00,
2013-05-15 06:26:00,68.0,50.0,-100.00,WSW,250,7.0,12.0,51,0.00,,,-99.99,,2013-05-15 11:26:00,
2013-05-15 06:36:00,68.0,50.0,-100.00,West,280,7.0,11.0,51,0.00,,,-99.99,,2013-05-15 11:36:00,
2013-05-15 06:47:00,68.0,50.0,-100.00,West,280,7.0,11.0,51,0.00,,,-99.99,,2013-05-15 11:47:00,
2013-05-15 06:55:00,68.0,50.0,-100.00,West,270,6.0,11.0,52,0.00,,,-99.99,,2013-05-15 11:55:00,
2013-05-15 07:13:00,67.0,50.0,-100.00,West,260,7.0,9.0,53,0.00,,,-99.99,,2013-05-15 12:13:00,
2013-05-15 07:26:00,68.0,50.0,-100.00,WNW,285,6.0,7.0,52,0.00,,,-99.99,,2013-05-15 12:26:00,
2013-05-15 07:46:00,67.0,49.0,-100.00,NW,305,4.0,7.0,52,0.00,,,-99.99,,2013-05-15 12:46:00,
2013-05-15 07:54:00,67.0,50.0,-100.00,NNW,340,6.0,11.0,55,0.00,,,-99.99,,2013-05-15 12:54:00,
2013-05-15 08:15:00,68.0,50.0,-100.00,North,0,6.0,8.0,53,0.00,,,-99.99,,2013-05-15 13:15:00,
2013-05-15 08:24:00,69.0,48.0,-100.00,North,10,9.0,14.0,47,0.00,,,-99.99,,2013-05-15 13:24:00,
2013-05-15 08:35:00,69.0,46.0,-100.00,NNE,25,9.0,14.0,43,0.00,,,-99.99,,2013-05-15 13:35:00,
2013-05-15 08:46:00,69.0,46.0,-100.00,NNE,25,9.0,14.0,43,0.00,,,-99.99,,2013-05-15 13:46:00,
2013-05-15 08:55:00,69.0,45.0,-100.00,North,10,10.0,15.0,42,0.00,,,-99.99,,2013-05-15 13:55:00,
2013-05-15 09:05:00,69.0,45.0,-100.00,North,10,10.0,15.0,42,0.00,,,-99.99,,2013-05-15 14:05:00,
2013-05-15 09:12:00,69.0,45.0,-100.00,NNE,15,9.0,12.0,42,0.00,,,-99.99,,2013-05-15 14:12:00,
2013-05-15 09:25:00,70.0,46.0,-100.00,NNE,25,9.0,13.0,41,0.00,,,-99.99,,2013-05-15 14:25:00,
2013-05-15 09:36:00,72.0,47.0,-100.00,NNE,20,6.0,12.0,41,0.00,,,-99.99,,2013-05-15 14:36:00,
2013-05-15 09:44:00,72.0,47.0,-100.00,NNE,20,6.0,12.0,41,0.00,,,-99.99,,2013-05-15 14:44:00,
2013-05-15 09:52:00,72.0,47.0,-100.00,NE,50,6.0,10.0,39,0.00,,,-99.99,,2013-05-15 14:52:00,
2013-05-15 10:08:00,72.0,47.0,-100.00,NE,50,6.0,10.0,39,0.00,,,-99.99,,2013-05-15 15:08:00,
2013-05-15 10:15:00,73.0,47.0,-100.00,NE,45,7.0,11.0,39,0.00,,,-99.99,,2013-05-15 15:15:00,
2013-05-15 10:27:00,74.0,47.0,-100.00,NE,40,5.0,10.0,38,0.00,,,-99.99,,2013-05-15 15:27:00,
2013-05-15 10:36:00,74.0,47.0,-100.00,NE,40,5.0,10.0,38,0.00,,,-99.99,,2013-05-15 15:36:00,
2013-05-15 10:46:00,73.0,47.0,-100.00,NE,35,5.0,9.0,39,0.00,,,-99.99,,2013-05-15 15:46:00,
2013-05-15 10:56:00,74.0,47.0,-100.00,NE,35,6.0,9.0,38,0.00,,,-99.99,,2013-05-15 15:56:00,
2013-05-15 11:08:00,75.0,48.0,-100.00,NE,40,6.0,9.0,37,0.00,,,-99.99,,2013-05-15 16:08:00,
2013-05-15 11:21:00,75.0,47.0,-100.00,NNE,20,6.0,10.0,37,0.00,,,-99.99,,2013-05-15 16:21:00,
2013-05-15 11:27:00,75.0,47.0,-100.00,NE,55,9.0,10.0,37,0.00,,,-99.99,,2013-05-15 16:27:00,
2013-05-15 11:35:00,77.0,49.0,-100.00,North,10,12.0,16.0,37,0.00,,,-99.99,,2013-05-15 16:35:00,
2013-05-15 11:47:00,76.0,48.0,-100.00,NNE,15,9.0,13.0,36,0.00,,,-99.99,,2013-05-15 16:47:00,
2013-05-15 11:53:00,77.0,49.0,-100.00,NE,40,9.0,14.0,36,0.00,,,-99.99,,2013-05-15 16:53:00,
2013-05-15 12:08:00,76.0,47.0,-100.00,NE,55,10.0,12.0,36,0.00,,,-99.99,,2013-05-15 17:08:00,
2013-05-15 12:17:00,76.0,49.0,-100.00,NNE,15,10.0,14.0,37,0.00,,,-99.99,,2013-05-15 17:17:00,
2013-05-15 12:26:00,75.0,49.0,-100.00,NNE,15,14.0,17.0,39,0.00,,,-99.99,,2013-05-15 17:26:00,
2013-05-15 12:35:00,75.0,49.0,-100.00,NNE,15,9.0,14.0,39,0.00,,,-99.99,,2013-05-15 17:35:00,
2013-05-15 12:45:00,74.0,48.0,-100.00,NE,50,8.0,15.0,39,0.00,,,-99.99,,2013-05-15 17:45:00,
2013-05-15 12:55:00,74.0,48.0,-100.00,NE,45,7.0,12.0,39,0.00,,,-99.99,,2013-05-15 17:55:00,
2013-05-15 13:05:00,74.0,48.0,-100.00,NE,45,7.0,12.0,39,0.00,,,-99.99,,2013-05-15 18:05:00,
2013-05-15 13:15:00,73.0,47.0,-100.00,NE,45,9.0,14.0,39,0.00,,,-99.99,,2013-05-15 18:15:00,
2013-05-15 13:26:00,73.0,47.0,-100.00,NNE,15,9.0,13.0,39,0.00,,,-99.99,,2013-05-15 18:26:00,
2013-05-15 13:36:00,73.0,47.0,-100.00,NE,50,7.0,13.0,39,0.00,,,-99.99,,2013-05-15 18:36:00,
2013-05-15 13:46:00,75.0,49.0,-100.00,NE,55,9.0,13.0,39,0.00,,,-99.99,,2013-05-15 18:46:00,
2013-05-15 13:54:00,75.0,49.0,-100.00,NNE,25,8.0,14.0,39,0.00,,,-99.99,,2013-05-15 18:54:00,
2013-05-15 14:07:00,75.0,49.0,-100.00,NNE,25,8.0,14.0,39,0.00,,,-99.99,,2013-05-15 19:07:00,
2013-05-15 14:15:00,76.0,49.0,-100.00,NE,40,7.0,14.0,37,0.00,,,-99.99,,2013-05-15 19:15:00,
2013-05-15 14:28:00,76.0,49.0,-100.00,NE,40,7.0,14.0,37,0.00,,,-99.99,,2013-05-15 19:28:00,
2013-05-15 14:37:00,76.0,48.0,-100.00,NE,50,10.0,15.0,36,0.00,,,-99.99,,2013-05-15 19:37:00,
2013-05-15 14:44:00,77.0,48.0,-100.00,ENE,60,10.0,15.0,36,0.00,,,-99.99,,2013-05-15 19:44:00,
2013-05-15 14:54:00,77.0,48.0,-100.00,NE,40,7.0,14.0,35,0.00,,,-99.99,,2013-05-15 19:54:00,
2013-05-15 15:07:00,77.0,48.0,-100.00,NE,40,7.0,14.0,35,0.00,,,-99.99,,2013-05-15 20:07:00,
2013-05-15 15:15:00,77.0,48.0,-100.00,ENE,60,9.0,14.0,35,0.00,,,-99.99,,2013-05-15 20:15:00,
2013-05-15 15:26:00,78.0,49.0,-100.00,ENE,65,9.0,14.0,35,0.00,,,-99.99,,2013-05-15 20:26:00,
2013-05-15 15:37:00,78.0,47.0,-100.00,NE,55,10.0,13.0,33,0.00,,,-99.99,,2013-05-15 20:37:00,
2013-05-15 15:45:00,79.0,49.0,-100.00,East,100,6.0,12.0,34,0.00,,,-99.99,,2013-05-15 20:45:00,
2013-05-15 16:07:00,79.0,48.0,-100.00,East,80,8.0,13.0,34,0.00,,,-99.99,,2013-05-15 21:07:00,
2013-05-15 16:19:00,80.0,49.0,-100.00,East,100,9.0,13.0,34,0.00,,,-99.99,,2013-05-15 21:19:00,
2013-05-15 16:26:00,80.0,49.0,-100.00,East,100,9.0,13.0,34,0.00,,,-99.99,,2013-05-15 21:26:00,
2013-05-15 16:39:00,80.0,48.0,-100.00,East,85,7.0,12.0,32,0.00,,,-99.99,,2013-05-15 21:39:00,
2013-05-15 16:49:00,80.0,48.0,-100.00,East,85,7.0,12.0,32,0.00,,,-99.99,,2013-05-15 21:49:00,
2013-05-15 16:55:00,80.0,47.0,-100.00,ESE,115,7.0,13.0,31,0.00,,,-99.99,,2013-05-15 21:55:00,
2013-05-15 17:08:00,80.0,47.0,-100.00,ESE,105,4.0,11.0,30,0.00,,,-99.99,,2013-05-15 22:08:00,
2013-05-15 17:16:00,81.0,48.0,-100.00,East,85,4.0,11.0,31,0.00,,,-99.99,,2013-05-15 22:16:00,
2013-05-15 17:27:00,81.0,48.0,-100.00,East,85,4.0,11.0,31,0.00,,,-99.99,,2013-05-15 22:27:00,
2013-05-15 17:38:00,80.0,47.0,-100.00,ESE,115,4.0,9.0,31,0.00,,,-99.99,,2013-05-15 22:38:00,
2013-05-15 17:47:00,80.0,47.0,-100.00,ESE,115,4.0,9.0,31,0.00,,,-99.99,,2013-05-15 22:47:00,
2013-05-15 17:54:00,79.0,48.0,-100.00,ESE,105,7.0,11.0,32,0.00,,,-99.99,,2013-05-15 22:54:00,
2013-05-15 18:07:00,80.0,49.0,-100.00,ESE,105,4.0,10.0,34,0.00,,,-99.99,,2013-05-15 23:07:00,
2013-05-15 18:14:00,80.0,50.0,-100.00,East,85,4.0,10.0,34,0.00,,,-99.99,,2013-05-15 23:14:00,
2013-05-15 18:27:00,80.0,50.0,-100.00,East,85,4.0,10.0,34,0.00,,,-99.99,,2013-05-15 23:27:00,
2013-05-15 18:38:00,79.0,49.0,-100.00,ESE,105,7.0,10.0,34,0.00,,,-99.99,,2013-05-15 23:38:00,
2013-05-15 18:54:00,80.0,50.0,-100.00,East,90,4.0,9.0,34,0.00,,,-99.99,,2013-05-15 23:54:00,
2013-05-15 19:05:00,79.0,50.0,-100.00,East,90,5.0,7.0,35,0.00,,,-99.99,,2013-05-16 00:05:00,
2013-05-15 19:16:00,79.0,50.0,-100.00,East,80,4.0,6.0,36,0.00,,,-99.99,,2013-05-16 00:16:00,
2013-05-15 19:25:00,79.0,50.0,-100.00,East,80,4.0,6.0,36,0.00,,,-99.99,,2013-05-16 00:25:00,
2013-05-15 19:35:00,78.0,49.0,-100.00,ENE,65,5.0,7.0,36,0.00,,,-99.99,,2013-05-16 00:35:00,
2013-05-15 19:48:00,77.0,49.0,-100.00,ENE,60,4.0,6.0,37,0.00,,,-99.99,,2013-05-16 00:48:00,
2013-05-15 19:54:00,76.0,49.0,-100.00,ENE,60,4.0,6.0,38,0.00,,,-99.99,,2013-05-16 00:54:00,
2013-05-15 20:06:00,76.0,49.0,-100.00,ENE,60,4.0,6.0,38,0.00,,,-99.99,,2013-05-16 01:06:00,
2013-05-15 20:27:00,75.0,49.0,-100.00,NE,55,6.0,7.0,39,0.00,,,-99.99,,2013-05-16 01:27:00,
2013-05-15 20:35:00,74.0,48.0,-100.00,ENE,60,5.0,6.0,40,0.00,,,-99.99,,2013-05-16 01:35:00,
2013-05-15 20:48:00,73.0,48.0,-100.00,NE,55,5.0,7.0,40,0.00,,,-99.99,,2013-05-16 01:48:00,
2013-05-15 20:55:00,72.0,47.0,-100.00,NE,55,6.0,7.0,40,0.00,,,-99.99,,2013-05-16 01:55:00,
2013-05-15 21:07:00,72.0,47.0,-100.00,NE,55,6.0,7.0,40,0.00,,,-99.99,,2013-05-16 02:07:00,
2013-05-15 21:15:00,72.0,47.0,-100.00,NE,55,7.0,8.0,40,0.00,,,-99.99,,2013-05-16 02:15:00,
2013-05-15 21:26:00,72.0,47.0,-100.00,ENE,60,6.0,9.0,40,0.00,,,-99.99,,2013-05-16 02:26:00,
2013-05-15 21:46:00,71.0,46.0,-100.00,ENE,65,6.0,9.0,41,0.00,,,-99.99,,2013-05-16 02:46:00,
2013-05-15 21:53:00,71.0,46.0,-100.00,ENE,65,6.0,9.0,41,0.00,,,-99.99,,2013-05-16 02:53:00,
2013-05-15 22:06:00,70.0,46.0,-100.00,ENE,75,6.0,9.0,41,0.00,,,-99.99,,2013-05-16 03:06:00,
2013-05-15 22:15:00,70.0,46.0,-100.00,East,95,4.0,8.0,41,0.00,,,-99.99,,2013-05-16 03:15:00,
2013-05-15 22:36:00,70.0,46.0,-100.00,East,100,7.0,9.0,41,0.00,,,-99.99,,2013-05-16 03:36:00,
2013-05-15 22:45:00,69.0,46.0,-100.00,ESE,105,6.0,9.0,42,0.00,,,-99.99,,2013-05-16 03:45:00,
2013-05-15 22:54:00,69.0,46.0,-100.00,East,100,6.0,7.0,43,0.00,,,-99.99,,2013-05-16 03:54:00,
2013-05-15 23:02:00,69.0,46.0,-100.00,East,100,6.0,7.0,43,0.00,,,-99.99,,2013-05-16 04:02:00,
2013-05-15 23:12:00,69.0,46.0,-100.00,ESE,105,4.0,6.0,43,0.00,,,-99.99,,2013-05-16 04:12:00,
2013-05-15 23:23:00,68.0,46.0,-100.00,ESE,120,2.0,3.0,44,0.00,,,-99.99,,2013-05-16 04:23:00,
2013-05-15 23:33:00,68.0,47.0,-100.00,ESE,110,4.0,6.0,46,0.00,,,-99.99,,2013-05-16 04:33:00,
2013-05-15 23:42:00,67.0,47.0,-100.00,ESE,105,4.0,6.0,47,0.00,,,-99.99,,2013-05-16 04:42:00,
2013-05-15 23:52:00,67.0,47.0,-100.00,SE,125,3.0,4.0,48,0.00,,,-99.99,,2013-05-16 04:52:00,